Location: Asheville, NC
(35.6000°N, 82.5500°W)
Time: 19:40:24
(UTC-04:00)

M-CUBED/EXP-1 PRIME - Pass Details

Date: 11 March 2018
Orbit: 431 x 675 km, 101.7° (Epoch: 23 June)

Event Time Altitude Azimuth Distance (km) Brightness Sun altitude
Rises 06:55:03 0° 46° (NE) 2,871 ? -11.3°
Reaches altitude 10° 06:59:09 10° 85° (E) 2,021 ? -10.5°
Maximum altitude 07:00:06 11° 98° (E) 1,990 ? -10.3°
Drops below altitude 10° 07:01:05 10° 110° (ESE) 2,042 ? -10.1°
Sets 07:05:18 0° 149° (SSE) 2,988 ? -9.2°
